Weather History for Douglas, WY

Change the Weather History Date:

Thursday, January 31, 2013

  Actual Average Record
Temperature  
Mean Temperature 22 °F 25 °F  
Max Temperature 28 °F 38 °F 56 °F (2003)
Min Temperature 16 °F 12 °F -16 °F (2011)
Degree Days  
Heating Degree Days 43 40  
Month to date heating degree days 1205 1242  
Since 1 July heating degree days 3926 4331  
Cooling Degree Days 0 0  
Month to date cooling degree days 0 0  
Year to date cooling degree days 0 0  
Moisture  
Dew Point 16 °F    
Average Humidity 80    
Maximum Humidity 88    
Minimum Humidity 71    
Precipitation  
Precipitation 0.01 in 0.02 in 0.09 in (2011)
Month to date precipitation 0.06 0.38  
Year to date precipitation 0.06 0.38  
Sea Level Pressure  
Sea Level Pressure 30.12 in    
Wind  
Wind Speed 7 mph (NW)    
Max Wind Speed 20 mph    
Max Gust Speed 25 mph    
Visibility 7 miles    
Events Snow    
T = Trace of Precipitation, MM = Missing Value Source: NWS Daily Summary

Daily Weather History Graph

Daily Weather History Graph

Search for Another Location

Airport:

Trip Planner

Search our weather history database for the weather conditions in past years. The results will help you decide how hot, cold, wet, or windy it might be!

Date:

Astronomy

Jan. 31, 2013 Rise Set
Actual Time 7:16 AM MST 5:13 PM MST
Civil Twilight 6:46 AM MST 5:43 PM MST
Nautical Twilight 6:12 AM MST 6:17 PM MST
Astronomical Twilight 5:39 AM MST 6:50 PM MST
Moon 10:27 PM MST (1/31) 9:09 AM MST (1/31)
Length of Visible Light 10h 57m
Length of Day
9h 56m
Waning Gibbous, 79% of the Moon is Illuminated
Jan 31
Waning Gibbous
Feb 3
Last Quarter
Feb 10
New
Feb 17
First Quarter
Feb 25
Full

Hourly Weather History & Observations

Time (MST) Temp. Windchill Dew Point Humidity Pressure Visibility Wind Dir Wind Speed Gust Speed Precip Events Conditions
12:20 AM 24.8 °F 13.4 °F 17.6 °F 74% 29.91 in 2.0 mi NW 12.7 mph - 0.00 in Snow Light Snow
12:31 AM 23.0 °F 12.4 °F 19.4 °F 86% 29.91 in 1.5 mi NW 10.4 mph - 0.00 in Snow Light Snow
12:53 AM 23.0 °F 11.1 °F 19.0 °F 85% 30.01 in 3.0 mi WNW 12.7 mph - 0.00 in Snow Light Snow
1:02 AM 23.0 °F 11.7 °F 17.6 °F 80% 29.92 in 5.0 mi WNW 11.5 mph - 0.00 in Snow Light Snow
1:53 AM 21.9 °F 10.4 °F 17.1 °F 82% 30.02 in 8.0 mi WNW 11.5 mph - 0.00 in Snow Light Snow
2:53 AM 23.0 °F 11.7 °F 16.0 °F 74% 30.01 in 10.0 mi NW 11.5 mph - 0.00 in   Overcast
3:53 AM 21.0 °F 10.6 °F 18.0 °F 88% 30.04 in 3.0 mi NW 9.2 mph - 0.00 in Snow Light Snow
4:31 AM 21.2 °F 9.5 °F 17.6 °F 86% 29.95 in 10.0 mi NW 11.5 mph - 0.00 in   Overcast
4:53 AM 21.9 °F 11.0 °F 17.1 °F 82% 30.06 in 10.0 mi NW 10.4 mph - 0.00 in   Overcast
5:53 AM 21.0 °F 7.6 °F 15.1 °F 78% 30.11 in 10.0 mi NNW 15.0 mph - N/A   Overcast
6:53 AM 21.0 °F 7.6 °F 14.0 °F 74% 30.15 in 10.0 mi NW 15.0 mph - N/A   Overcast
7:38 AM 19.4 °F 5.5 °F 14.0 °F 80% 30.05 in 7.0 mi NNW 15.0 mph - 0.00 in Snow Light Snow
7:50 AM 19.4 °F 5.0 °F 15.8 °F 86% 30.05 in 0.8 mi NNW 16.1 mph - 0.00 in Snow Light Snow
7:53 AM 19.9 °F 6.2 °F 15.1 °F 81% 30.20 in 0.5 mi NNW 15.0 mph - 0.00 in Snow Snow
8:08 AM 19.4 °F 6.0 °F 15.8 °F 86% 30.06 in 1.2 mi NW 13.8 mph - 0.00 in Snow Light Snow
8:16 AM 19.4 °F 6.6 °F 14.0 °F 80% 30.07 in 3.0 mi NW 12.7 mph - 0.00 in Snow Light Snow
8:53 AM 19.0 °F 7.5 °F 12.0 °F 74% 30.22 in 6.0 mi North 10.4 mph - 0.00 in Snow Light Snow
9:32 AM 17.6 °F 10.7 °F 10.4 °F 73% 30.11 in 2.0 mi North 4.6 mph - 0.00 in Snow Light Snow
9:53 AM 17.1 °F 6.6 °F 10.9 °F 77% 30.28 in 2.0 mi North 8.1 mph - 0.00 in Snow Light Snow
10:02 AM 17.6 °F 7.3 °F 10.4 °F 73% 30.12 in 1.5 mi NNE 8.1 mph - 0.00 in Snow Light Snow
10:19 AM 17.6 °F 9.3 °F 10.4 °F 73% 30.11 in 2.5 mi NNE 5.8 mph - 0.00 in Snow Light Snow
10:29 AM 15.8 °F 6.1 °F 8.6 °F 73% 30.12 in 4.0 mi North 6.9 mph - 0.00 in Snow Light Snow
10:53 AM 17.1 °F 11.7 °F 10.0 °F 74% 30.27 in 10.0 mi NNW 3.5 mph - 0.00 in   Overcast
11:53 AM 19.9 °F - 12.9 °F 74% 30.24 in 10.0 mi Calm Calm - 0.01 in   Overcast
12:53 PM 24.1 °F 17.0 °F 17.1 °F 75% 30.21 in 10.0 mi South 5.8 mph - N/A   Scattered Clouds
1:53 PM 25.0 °F 19.3 °F 18.0 °F 75% 30.20 in 10.0 mi SW 4.6 mph - N/A   Overcast
2:53 PM 27.0 °F - 19.9 °F 75% 30.19 in 10.0 mi Calm Calm - N/A   Overcast
3:53 PM 27.0 °F 23.0 °F 19.0 °F 72% 30.20 in 10.0 mi SE 3.5 mph - N/A   Overcast
4:53 PM 27.0 °F 23.0 °F 19.9 °F 75% 30.19 in 10.0 mi SSW 3.5 mph - N/A   Overcast
5:53 PM 26.1 °F 19.4 °F 19.9 °F 78% 30.21 in 10.0 mi SW 5.8 mph - N/A   Overcast
6:53 PM 26.1 °F - 21.0 °F 81% 30.22 in 10.0 mi Calm Calm - N/A   Overcast
7:53 PM 25.0 °F 20.7 °F 19.9 °F 81% 30.22 in 10.0 mi SE 3.5 mph - N/A   Overcast
8:53 PM 25.0 °F 20.7 °F 21.0 °F 85% 30.22 in 10.0 mi South 3.5 mph - N/A   Overcast
9:53 PM 24.1 °F 17.0 °F 19.0 °F 81% 30.21 in 10.0 mi South 5.8 mph - N/A   Mostly Cloudy
11:53 PM 21.0 °F - 17.1 °F 85% 30.21 in 10.0 mi Calm Calm - N/A   Overcast